[[{"header":{"parameterUnit":"m.s-1","parameterCategory":1,"la1":30.2991,"la2":30.254,"lo1":-89.0895,"lo2":-89.0444,"dy":0.0017,"dx":0.0017,"nx":28,"ny":28,"refTime":"2025-07-22T21:00:00:Z","depth":0,"parameterNumber":2,"parameterNumberName":"U-component_of_WINDS"},"data":[0,0,0,0,0,0,0,0,0,0,0,0,0,0,0,0,0,0,0,0,0,0,0,0,0,0,0,0,0,0,0,0,0,0,0,0,0,0,0,0,0,0,0,0,0,0,0,0,0,0,0,0,0,0,0,0,0,0,2.9069,2.9069,0,2.9087,2.9087,2.9088,2.8951,2.8947,2.8943,2.894,2.8967,2.8972,2.8976,0,0,0,0,0,0,0,0,0,0,0,0,0,2.8923,2.8927,2.9069,2.9069,2.9069,2.9087,2.9087,2.9088,2.8952,2.8947,2.8942,2.8938,2.8966,2.8971,2.8976,0,0,0,0,0,0,0,0,0,0,0,0,0,2.8969,2.8928,2.9069,2.9003,2.8998,2.9087,2.9087,2.9088,2.8953,2.8947,2.8941,2.8936,2.8964,2.8971,2.8977,2.9133,0,0,2.8997,2.9,0,0,0,0,0,0,0,0,2.8967,2.8974,2.9013,2.9008,2.9002,2.9011,2.9046,2.9103,2.8954,2.897,2.894,2.8933,2.8987,2.8991,2.9008,2.9134,2.9135,2.8997,2.9001,2.9004,2.9006,0,0,0,0,0,0,0,2.8964,2.8973,2.9076,2.9013,2.9007,2.8976,2.8976,2.9056,2.9011,2.8968,2.8958,2.8962,2.8983,2.9002,2.9007,2.9136,2.8997,2.9003,2.9007,2.9009,2.9392,2.9398,0,0,0,0,0,0,2.8968,2.8971,2.9076,2.9077,2.8969,2.8983,2.8983,2.9014,2.901,2.9003,2.8967,2.8955,2.8994,2.9,2.9008,2.919,2.9004,2.901,2.9014,2.9385,2.9393,2.94,0,0,0,0,0,0,2.8965,2.8979,2.9075,2.9021,2.9031,2.8991,2.9027,2.9017,2.9036,2.9008,2.9001,2.8994,2.8989,2.8999,2.9102,2.9189,2.9013,2.9019,2.9378,2.9388,2.9396,2.9556,0,0,0,0,0,0,2.8962,2.8978,2.9035,2.9023,2.9034,2.9167,2.9033,2.9022,2.9046,2.9032,2.9032,2.9026,2.8985,2.9093,2.9109,2.9195,2.9024,2.937,2.9382,2.9393,2.9543,2.957,2.9593,0,0,0,0,0,2.8957,2.9082,2.9039,2.9052,2.9104,2.9172,2.9179,2.9127,2.9054,2.9112,2.9095,2.9026,2.9177,2.9105,2.9121,2.9211,2.9364,2.9379,2.9393,2.9532,2.9565,2.9592,0,0,0,0,0,0,2.9108,2.9079,2.9031,2.9155,2.9167,2.9149,2.9221,2.9163,2.9198,2.9183,2.912,2.9121,2.9236,2.9233,2.9154,2.9362,2.9258,2.9276,2.9359,2.939,2.9414,2.9413,2.9029,0,0,0,0,0,2.9155,2.921,2.9182,2.9295,2.9302,2.9261,2.9289,2.9247,2.9258,2.9263,2.9253,2.9269,2.9319,2.9354,2.94,2.9542,2.9541,2.9612,2.9637,2.9657,2.9674,2.975,2.9781,2.9446,2.9446,2.9446,0,0,2.9254,2.9245,2.9284,2.9324,2.9329,2.9389,2.9266,2.9336,2.9381,2.9275,2.9371,2.9365,2.9378,2.9502,2.9556,2.9503,2.9766,2.9675,2.9692,2.9697,2.9768,2.9799,2.9828,2.9456,2.9454,2.9452,0,0,2.9464,2.9463,2.9555,2.9562,2.9569,2.954,2.9563,2.9554,2.9545,2.964,2.9561,2.9616,2.9704,2.9717,2.9735,2.9951,2.989,2.9968,3.0099,3.0173,3.02,3.0223,3.0301,3.0329,2.9984,2.9985,2.9985,0,2.9587,2.9673,2.9612,2.9686,2.9707,2.9611,2.9706,2.9716,2.9739,2.9757,2.9697,2.9806,2.9808,2.9934,2.9986,3.0004,3.0029,2.9968,3.02,3.0223,3.0244,3.0317,3.0347,2.9994,2.9993,2.9992,2.9991,0,2.9824,2.9885,2.9959,2.9981,3.001,3.0095,3.0049,3.0087,3.0043,3.0022,3.0121,3.012,3.0163,3.019,3.0149,3.0311,3.0278,3.0211,3.0105,3.0286,3.0354,3.0382,3.0008,3.0004,3.0002,2.9999,0,0,3.013,3.0116,3.0144,3.0153,3.0154,3.0201,3.0283,3.0322,3.0356,3.0376,3.0443,3.052,3.0457,3.0478,3.0438,3.0504,3.0676,3.0428,3.0428,3.0475,3.0855,3.0905,3.0939,3.0635,3.064,3.0644,3.0854,0,3.0336,3.047,3.0418,3.0558,3.0615,3.0525,3.0595,3.0605,3.0588,3.0635,3.0617,3.0672,3.0585,3.0597,3.0658,3.0642,3.0751,3.0626,3.07,3.0703,3.0699,3.0974,3.1028,3.1225,3.088,3.0884,3.0887,0,3.0594,3.0621,3.0766,3.0757,3.0779,3.0843,3.0875,3.0921,3.0931,3.0914,3.0937,3.0883,3.0964,3.0859,3.0971,3.0888,3.0915,3.0912,3.0918,3.0923,3.0807,3.0988,3.1287,3.1317,3.0929,3.0925,3.0922,0,3.0803,3.0876,3.0972,3.0983,3.0975,3.1022,3.1022,3.1025,3.1053,3.1082,3.1099,3.1139,3.1162,3.1195,3.1154,3.108,3.1273,3.1164,3.1263,3.1264,3.1307,3.1305,3.1616,3.1325,3.1324,3.1324,3.1323,0,3.1038,3.1131,3.1066,3.1126,3.1227,3.1167,3.1271,3.126,3.1265,3.1322,3.1248,3.1304,3.1246,3.1298,3.1266,3.1365,3.1376,3.1366,3.1356,3.1372,3.1374,3.139,3.1375,3.1332,3.133,3.1328,3.1327,0,3.129,3.1249,3.1348,3.1332,3.133,3.1406,3.1393,3.1449,3.1426,3.15,3.1514,3.1479,3.1536,3.1498,3.1556,3.1535,3.1664,3.1636,3.166,3.1652,3.1753,3.1744,3.2085,3.2127,3.1809,3.1812,3.1815,0,3.1442,3.1511,3.1502,3.1533,3.1537,3.159,3.1616,3.1561,3.1592,3.1609,3.1663,3.1713,3.175,3.1846,3.1827,3.1872,3.1844,3.196,3.185,3.1864,3.1846,3.1843,3.185,3.1983,3.1987,3.199,3.1992,0,3.1718,3.1695,3.1735,3.1769,3.1802,3.1827,3.1846,3.1877,3.1821,3.1861,3.1916,3.1945,3.2003,3.2054,3.2091,3.2093,3.2035,3.2027,3.2052,3.2069,3.2081,3.2076,3.1721,3.2019,3.2017,3.2015,3.2013,3.2012,3.1925,3.1982,3.1984,3.2031,3.2039,3.2059,3.211,3.2093,3.2137,3.2178,3.2143,3.2211,3.222,3.2263,3.2272,3.2326,3.2278,3.2315,3.2324,3.2334,3.2348,3.2072,3.2332,3.2332,3.2331,3.233,3.2329,0,3.2197,3.2193,3.2238,3.2265,3.2304,3.2242,3.226,3.2297,3.2356,3.2368,3.2405,3.247,3.252,3.2505,3.2549,3.2595,3.257,3.2609,3.2605,3.2607,3.2388,3.2362,3.2629,3.2629,3.2629,3.2629,3.2628,3.2628,3.2343,3.2436,3.2413,3.251,3.2507,3.257,3.2586,3.2604,3.2613,3.2688,3.2728,3.2716,3.2719,3.2763,3.2806,3.2801,3.2821,3.287,3.2856,3.2652,3.2622,3.2594,3.2569,3.2875,3.2875,3.3069,3.3071,3.3073]},{"header":{"parameterUnit":"m.s-1","parameterCategory":1,"la1":30.2991,"la2":30.254,"lo1":-89.0895,"lo2":-89.0444,"dy":0.0017,"dx":0.0017,"nx":28,"ny":28,"refTime":"2025-07-22T21:00:00:Z","depth":0,"parameterNumber":3,"parameterNumberName":"V-component_of_WINDS"},"data":[0,0,0,0,0,0,0,0,0,0,0,0,0,0,0,0,0,0,0,0,0,0,0,0,0,0,0,0,0,0,0,0,0,0,0,0,0,0,0,0,0,0,0,0,0,0,0,0,0,0,0,0,0,0,0,0,0,0,1.099,1.0992,0,1.1137,1.1139,1.114,1.115,1.1149,1.1147,1.1146,1.1297,1.1302,1.1308,0,0,0,0,0,0,0,0,0,0,0,0,0,1.0718,1.0723,1.099,1.0992,1.0994,1.1137,1.1139,1.1141,1.1151,1.1149,1.1147,1.1145,1.1295,1.1302,1.1308,0,0,0,0,0,0,0,0,0,0,0,0,0,1.0848,1.0725,1.099,1.1016,1.102,1.1136,1.1139,1.1141,1.1151,1.1149,1.1146,1.1144,1.1293,1.1301,1.1309,1.141,0,0,1.1335,1.1338,0,0,0,0,0,0,0,0,1.084,1.0858,1.101,1.1014,1.1019,1.1123,1.1098,1.1231,1.1152,1.1101,1.1146,1.1143,1.1241,1.1254,1.1287,1.1417,1.1424,1.1336,1.1341,1.1344,1.1347,0,0,0,0,0,0,0,1.0831,1.0851,1.1048,1.1012,1.1018,1.102,1.1036,1.1124,1.1183,1.1105,1.1107,1.1124,1.1243,1.1278,1.129,1.1426,1.1335,1.1343,1.1348,1.1351,1.1645,1.1648,0,0,0,0,0,0,1.0817,1.0844,1.1044,1.1053,1.0922,1.1027,1.1045,1.1092,1.1182,1.1194,1.1126,1.1124,1.1265,1.128,1.1296,1.1419,1.1344,1.1352,1.1357,1.1642,1.1646,1.1649,0,0,0,0,0,0,1.0811,1.0835,1.1038,1.0949,1.0975,1.1034,1.1087,1.1096,1.1132,1.1198,1.1208,1.1151,1.1264,1.1284,1.1381,1.1424,1.1356,1.1363,1.1639,1.1643,1.1647,1.1667,0,0,0,0,0,0,1.0804,1.0833,1.0872,1.0949,1.0979,1.1121,1.109,1.1101,1.1146,1.1145,1.1224,1.1235,1.1264,1.1369,1.1389,1.1435,1.137,1.1636,1.1641,1.1646,1.1663,1.1671,1.1679,0,0,0,0,0,1.0794,1.0872,1.0874,1.0898,1.1029,1.1124,1.1141,1.1172,1.1149,1.1189,1.1231,1.1233,1.1416,1.1379,1.1402,1.145,1.1633,1.164,1.1646,1.1659,1.167,1.1679,0,0,0,0,0,0,1.0799,1.0883,1.0886,1.0991,1.105,1.1125,1.1176,1.1182,1.1249,1.1245,1.1281,1.1299,1.1395,1.1432,1.1389,1.1552,1.1522,1.1533,1.1524,1.1535,1.1543,1.1532,1.1377,0,0,0,0,0,1.0812,1.0882,1.0951,1.1038,1.1067,1.1116,1.1159,1.1177,1.124,1.1265,1.1314,1.1375,1.1446,1.1492,1.1562,1.1668,1.1685,1.1712,1.172,1.1726,1.1736,1.1794,1.1807,1.167,1.167,1.1669,0,0,1.0841,1.0895,1.0937,1.104,1.1088,1.1159,1.1137,1.1214,1.1267,1.1277,1.1372,1.1409,1.1479,1.1581,1.1629,1.1616,1.1778,1.1735,1.1739,1.1746,1.1802,1.1815,1.1827,1.1674,1.1673,1.1672,0,0,1.093,1.0978,1.1055,1.1102,1.1175,1.1207,1.1225,1.1299,1.1324,1.142,1.1428,1.1491,1.1614,1.1663,1.1704,1.1809,1.1812,1.183,1.1872,1.1928,1.1939,1.1949,1.1986,1.1999,1.1839,1.1839,1.1839,0,1.0956,1.1064,1.1094,1.117,1.1214,1.1225,1.1303,1.1348,1.144,1.147,1.1454,1.1606,1.1654,1.1768,1.1793,1.1826,1.1847,1.1822,1.1935,1.1945,1.1955,1.1991,1.2005,1.1841,1.1841,1.1841,1.184,0,1.1092,1.1166,1.122,1.1307,1.1358,1.1434,1.1476,1.1523,1.1537,1.157,1.1667,1.1724,1.1805,1.1833,1.1847,1.1948,1.1937,1.1928,1.1898,1.1969,1.2004,1.2018,1.1843,1.1843,1.1842,1.1842,0,0,1.119,1.1291,1.1311,1.135,1.1429,1.1487,1.1563,1.1642,1.1682,1.1743,1.1808,1.191,1.1901,1.1948,1.1968,1.2017,1.2096,1.2001,1.2003,1.2017,1.221,1.2217,1.2232,1.2098,1.21,1.2103,1.2204,0,1.1288,1.1424,1.1453,1.1571,1.1639,1.1649,1.1716,1.1772,1.1804,1.1867,1.1903,1.1975,1.1958,1.1986,1.2035,1.2076,1.2135,1.2069,1.2159,1.2162,1.2142,1.225,1.2259,1.2352,1.2217,1.222,1.2221,0,1.142,1.1484,1.1609,1.1678,1.1708,1.1767,1.184,1.19,1.1963,1.1983,1.2034,1.2048,1.2128,1.2093,1.2203,1.2157,1.2195,1.2221,1.2225,1.2235,1.2196,1.2264,1.2382,1.2396,1.2243,1.2241,1.2239,0,1.1479,1.1596,1.1686,1.1719,1.1802,1.1843,1.188,1.194,1.1985,1.2049,1.2078,1.215,1.219,1.2246,1.2279,1.2251,1.2385,1.2354,1.2405,1.2404,1.2434,1.2432,1.256,1.2457,1.2457,1.2457,1.2456,0,1.1585,1.1661,1.1713,1.1769,1.1853,1.1885,1.1968,1.2004,1.2058,1.212,1.2133,1.2191,1.223,1.2294,1.232,1.2406,1.2424,1.2443,1.2449,1.2442,1.244,1.2468,1.2463,1.246,1.2459,1.2459,1.2458,0,1.1666,1.1704,1.1802,1.1872,1.1891,1.1951,1.2011,1.2064,1.2096,1.2175,1.2195,1.2246,1.2321,1.2359,1.2452,1.247,1.2567,1.2569,1.2546,1.2549,1.2597,1.2592,1.2749,1.2771,1.2653,1.2654,1.2655,0,1.1732,1.179,1.1866,1.1908,1.1945,1.2013,1.2059,1.2091,1.2138,1.2213,1.2258,1.2333,1.2396,1.2515,1.256,1.2631,1.2635,1.2685,1.2646,1.2637,1.2637,1.2633,1.2639,1.2693,1.2694,1.2695,1.2695,0,1.1844,1.186,1.1925,1.1996,1.2049,1.2107,1.2164,1.2198,1.224,1.2291,1.2368,1.2416,1.2511,1.2586,1.266,1.2697,1.2704,1.2707,1.2723,1.2717,1.2701,1.2711,1.2566,1.2704,1.2703,1.2702,1.2702,1.2702,1.192,1.1972,1.2033,1.2105,1.215,1.2203,1.2257,1.2295,1.2359,1.2439,1.2454,1.2535,1.2595,1.2696,1.2735,1.2799,1.2788,1.2811,1.2816,1.2822,1.2824,1.269,1.2812,1.2812,1.2812,1.2812,1.2812,0,1.2033,1.2073,1.2138,1.2217,1.2273,1.2273,1.2335,1.2382,1.2453,1.2509,1.2569,1.2657,1.2729,1.2779,1.2852,1.2893,1.2898,1.2912,1.2909,1.2918,1.283,1.2809,1.2907,1.2907,1.2907,1.2906,1.2906,1.2906,1.2099,1.2187,1.2209,1.232,1.2359,1.2438,1.2474,1.2522,1.2567,1.2664,1.2723,1.2755,1.2808,1.2885,1.2951,1.2964,1.299,1.3004,1.3017,1.2934,1.2924,1.2915,1.2895,1.3009,1.301,1.31,1.3101,1.3101]}]]